COSMOS 1711 (GLONASS)

Satellite information

Favourite Embed

Satellite Type and Status

PAYLOADIN ORBIT

Key statistics

Satellite COSMOS 1711 (GLONASS) at a glance.

Uptime

14501

Days in orbit

Revolutions

≈ 2.1

Per day

Orbit

MEO

Medium Earth Orbit

Inclination

66.2

Latest

Satellite identification and parameters

Extended collection of information and parameters for COSMOS 1711 (GLONASS).

Object identification

Identified? True

Debris? False

Object name: COSMOS 1711 (GLONASS)

International designator: 1985-118B

Object number (NORAD): 16397

Object ID (CCSDS): 16397

Country: COMMONWEALTH OF INDEPENDENT STATES (CIS)

Current information (Y/N): Y

RCS size: MEDIUM

Orbital parameters

Period: 675.735 minutes

Inclination: 66.1931 deg

SMA: 25508.075 km

Apoapsis: 19155.11 km

Periapsis: 19104.77 km

RAAN: 333.9617 deg

Eccentricy: 0.00098674

Argument of periapsis: 193.6785 deg

Mean anomaly: 135.4311 deg

Mean motion: 2.13101364 rev/day

Mean motion (dot): -0.00000065 rev/day2

B* drag term: 0.0 1/REarth

Two-line elements (TLE)

Creation date: Sept. 3, 2025, 2:21 a.m.

Reference frame: TEME

Reference center: EARTH

Epoch: Sept. 2, 2025, 4:39 p.m. UTC

TLE line 0: 0 COSMOS 1711 (GLONASS)

TLE line 1: 1 16397U 85118B 25245.69377104 -.00000065 00000-0 00000-0 0 9996

TLE line 2: 2 16397 66.1931 333.9617 0009867 193.6785 135.4311 2.13101364308623

Live tracking on map

Real-time ground track for satellite COSMOS 1711 (GLONASS).

In-orbit conjunctions

A list of the most updated potential collisions computed for object COSMOS 1711 (GLONASS).

Target Orbit TCA Probability of collision Miss distance Type
COSMOS 2289 (GLONASS) MEO 2025-08-28 04:07:41 TBA 4742.0 (m) PAYLOAD
COSMOS 2289 (GLONASS) MEO 2025-08-27 16:51:57 TBA 4833.0 (m) PAYLOAD
COSMOS 2289 (GLONASS) MEO 2025-08-27 05:36:13 TBA 4107.0 (m) PAYLOAD
COSMOS 2289 (GLONASS) MEO 2025-08-26 18:20:28 TBA 3394.0 (m) PAYLOAD
COSMOS 2289 (GLONASS) MEO 2025-08-26 07:04:44 TBA 2937.0 (m) PAYLOAD

Associated space launch

GLONASS navigation satellites

COSMOS 1711 (GLONASS) was lifted into orbit during the mission ‘Proton | Uragan 12 & 13’, on board a Proton space rocket.

The launch took place on Dec. 24, 1985, 9:43 p.m. from 200/39 (200L).

For more information about the launch, click the button.

Launch to space Proton | Uragan 12 & 13
Proton | Uragan 12 & 13

Agency: N/A

Status: Launch Successful

Launch date: Dec. 24, 1985, 9:43 p.m. UTC

Rocket: Proton

Launch pad: 200/39 (200L)

Location: Baikonur Cosmodrome, Republic of Kazakhstan

...

Latest news about this satellite

There are no fresh news available about this satellite. Check back as we update our databases every day.


Newsletter sign-up

Weekly statistics, charts and insights to help you stay on top of the space industry.